Find Starlink 35800

NORAD ID: 66291 Int'l Des: 2025-247 Owner: SPXS Country: US Constellation: starlink operational
LEOCIRCULAR

現在のビュー

3D地球を読み込み中...

Starlink 35800について

説明を読み込み中...

次回通過

Passes for default location (London). Set your location on the main map for personalized predictions.

高度履歴

Loading altitude history...

軌道要素

1 66291U 25247AC 26146.29703732 .00012128 00000-0 36951-3 0 9997
2 66291 53.1592 189.6873 0001048 88.0196 272.0926 15.34399200 32973
Epoch: May 26, 2026 • Age: 8 hours

現在のステータス

高度 462.9 km
速度 7.64 km/s
衛星直下点 6.07°N, 83.84°E
打ち上げ日 Oct 31, 2025
運用期間 0.5 years
タイプ internet

技術仕様

分類 Payload
質量 575.00 kg
乾燥質量 530.00 kg
総質量 575.00 kg
長さ 0.30 m
直径 4.10 m
スパン 29.00 m
形状 Box + pan
製造者 SPXS
バスタイプ Starlink V2MO
フェーズステータス In Orbit
所有者/国 SPXS/US

Most Searched